Luxor, Egypt

3:35 AM EET on April 24, 2018 (GMT +0200)
Luxor

Weather History for HELX - August, 2013

Change the Weather History Date:

Monday, August 5, 2013

  Actual Average Record
Temperature  
Mean Temperature 90 °F -  
Max Temperature 104 °F 102 °F 113 °F (2010)
Min Temperature 76 °F 75 °F 75 °F (1999)
Cooling Degree Days 25    
Growing Degree Days 40 (Base 50)    
Moisture  
Dew Point 58 °F    
Average Humidity 31    
Maximum Humidity 43    
Minimum Humidity 18    
Precipitation  
Precipitation 0.00 in 0.00 in - ()
Sea Level Pressure  
Sea Level Pressure 29.67 in    
Wind  
Wind Speed 2 mph ()    
Max Wind Speed 8 mph    
Max Gust Speed -    
Visibility 6.0 miles    
Events      
Averages and records for this station are not official NWS values.
T = Trace of Precipitation, MM = Missing Value Source: Averaged Metar Reports

Daily Weather History Graph

Daily Weather History Graph

Search for Another Location

Airport or City:

Astronomy

Aug. 05, 2013 Rise Set
Actual Time 5:17 AM EET 6:32 PM EET
Civil Twilight 4:53 AM EET 6:56 PM EET
Nautical Twilight 4:23 AM EET 7:25 PM EET
Astronomical Twilight 3:53 AM EET 7:55 PM EET
Moon 3:54 AM EET (8/5) 5:22 PM EET (8/5)
Length of Visible Light 14h 03m
Length of Day
13h 14m
Waning Crescent, 2% of the Moon is Illuminated
Aug 5
Waning Crescent
Aug 6
New
Aug 14
First Quarter
Aug 21
Full
Aug 28
Last Quarter

Hourly Weather History & Observations

Time (EET) Temp. Heat Index Dew Point Humidity Pressure Visibility Wind Dir Wind Speed Gust Speed Precip Events Conditions
2:00 AM 81 °F - 50 °F 24% 29.68 in 6 mi Calm Calm - -  
3:00 AM 78.8 °F - 50.0 °F 36% 29.68 in - SW 2.3 mph - N/A   Clear
4:00 AM 80.6 °F - 50.0 °F 34% 29.68 in - Calm Calm - N/A   Clear
5:00 AM 78.8 °F - 50.0 °F 36% 29.68 in - SSW 2.3 mph - N/A   Clear
6:00 AM 78.8 °F - 53.6 °F 42% 29.68 in - Calm Calm - N/A   Clear
7:00 AM 84.2 °F 83.8 °F 59.0 °F 42% 29.71 in - WSW 3.5 mph - N/A   Clear
8:00 AM 87 °F - 62 °F 33% 29.71 in 6 mi West 4.6 mph - -  
8:00 AM 87.8 °F 88.5 °F 62.6 °F 43% 29.71 in - West 4.6 mph - N/A   Clear
9:00 AM 91.4 °F 92.1 °F 62.6 °F 38% 29.71 in - WNW 1.2 mph - N/A   Clear
10:00 AM 93.2 °F 94.1 °F 62.6 °F 36% 29.71 in - West 2.3 mph - N/A   Clear
11:00 AM 96.8 °F 99.0 °F 64.4 °F 34% 29.71 in - West 2.3 mph - N/A   Clear
12:00 PM 98.6 °F 101.0 °F 64.4 °F 32% 29.68 in - NW 3.5 mph - N/A   Clear
1:00 PM 100.4 °F 102.4 °F 62.6 °F 29% 29.68 in - West 3.5 mph - N/A   Clear
2:00 PM 104 °F - 63 °F 18% 29.64 in 6 mi SW 3.5 mph - -  
2:00 PM 104.0 °F 102.3 °F 53.6 °F 19% 29.65 in - SW 3.5 mph - N/A   Clear
3:00 PM 104.0 °F 106.6 °F 62.6 °F 26% 29.65 in - West 8.1 mph - N/A   Clear
4:00 PM 104.0 °F 104.6 °F 59.0 °F 23% 29.65 in - West 6.9 mph - N/A   Clear
5:00 PM 102.2 °F 101.4 °F 57.2 °F 22% 29.62 in - WNW 3.5 mph - N/A   Clear
6:00 PM 98.6 °F 97.6 °F 57.2 °F 25% 29.62 in - NNW 2.3 mph - N/A   Clear
7:00 PM 93.2 °F 92.6 °F 59.0 °F 32% 29.62 in - NW 2.3 mph - N/A   Clear
8:00 PM 92 °F - 59 °F 24% 29.64 in 6 mi WSW 2.3 mph - -  
8:00 PM 91.4 °F 90.7 °F 59.0 °F 34% 29.65 in - WSW 2.3 mph - N/A   Clear
9:00 PM 89.6 °F 87.7 °F 55.4 °F 31% 29.65 in - SW 3.5 mph - N/A   Clear
10:00 PM 87.8 °F 85.7 °F 53.6 °F 31% 29.68 in - SW 3.5 mph - N/A   Clear
11:00 PM 87.8 °F - 51.8 °F 29% 29.68 in - SW 4.6 mph - N/A   Clear